EW7414 Weather Reports


time (UTC)temp
C
wind
direction
speed
KPH
gust
KPH
rain 1hr
cm
rain 24hr
cm
rain mn
cm
humidity
%
barometer
mb
20260504045324 7 217 0.0 0.0 0.00 0.00 0.00 56 1013.6
20260504044831 8 222 0.0 0.0 0.00 0.00 0.00 56 1013.7
20260504044315 8 226 0.0 0.0 0.00 0.00 0.00 56 1013.6
20260504043844 8 239 0.0 0.0 0.00 0.00 0.00 56 1013.6
20260504043327 8 227 0.0 0.0 0.00 0.00 0.00 56 1013.7
20260504042832 8 214 0.0 0.0 0.00 0.00 0.00 56 1013.6
20260504042315 8 232 0.0 0.0 0.00 0.00 0.00 55 1013.5
20260504041819 8 219 0.0 0.0 0.00 0.00 0.00 55 1013.6
20260504041325 8 225 0.0 0.0 0.00 0.00 0.00 55 1013.5
20260504040832 8 244 0.0 0.0 0.00 0.00 0.00 55 1013.5
20260504040340 8 226 0.0 0.0 0.00 0.00 0.00 55 1013.5
20260504035823 8 236 0.0 0.0 0.00 0.00 0.00 55 1013.5
20260504035327 8 221 0.0 0.0 0.00 0.00 0.00 55 1013.5
20260504034817 8 210 0.0 0.0 0.00 0.00 0.00 55 1013.4
20260504034323 8 131 0.0 0.0 0.00 0.00 0.00 55 1013.4
20260504033829 8 247 0.0 0.0 0.00 0.00 0.00 55 1013.4
20260504033314 8 256 0.0 0.0 0.00 0.00 0.00 55 1013.5
20260504032821 8 203 0.0 0.0 0.00 0.00 0.00 55 1013.4
20260504032347 8 247 0.0 0.0 0.00 0.00 0.00 55 1013.5
20260504031849 8 214 0.0 0.0 0.00 0.00 0.00 55 1013.4
20260504031333 8 220 0.0 0.0 0.00 0.00 0.00 55 1013.4
20260504030818 8 222 0.0 0.0 0.00 0.00 0.00 55 1013.4
20260504030324 8 236 0.0 0.0 0.00 0.00 0.00 55 1013.5
20260504025830 8 221 0.0 0.0 0.00 0.00 0.00 54 1013.4
20260504025320 8 228 0.0 0.0 0.00 0.00 0.00 54 1013.4
20260504024846 8 236 0.0 0.0 0.00 0.00 0.00 54 1013.5
20260504024332 8 228 0.0 0.0 0.00 0.00 0.00 54 1013.6
20260504023817 8 239 0.0 0.0 0.00 0.00 0.00 54 1013.6
20260504023345 8 212 0.0 0.0 0.00 0.00 0.00 54 1013.6
20260504022830 8 213 0.0 0.0 0.00 0.00 0.00 53 1013.6
20260504022315 8 218 0.0 0.0 0.00 0.00 0.00 53 1013.5
20260504021822 8 214 0.0 0.0 0.00 0.00 0.00 53 1013.5
20260504021326 8 231 0.0 0.0 0.00 0.00 0.00 52 1013.6
20260504020831 9 226 0.0 0.0 0.00 0.00 0.00 52 1013.6
20260504020319 9 229 0.0 0.0 0.00 0.00 0.00 52 1013.4
20260504015826 9 232 0.0 0.0 0.00 0.00 0.00 52 1013.5
20260504015314 8 236 0.0 0.0 0.00 0.00 0.00 52 1013.5
20260504014824 8 211 0.0 0.0 0.00 0.00 0.00 52 1013.5
20260504014350 9 231 0.0 0.0 0.00 0.00 0.00 52 1013.5
20260504013814 9 210 0.0 0.0 0.00 0.00 0.00 52 1013.5
20260504013318 9 198 0.0 0.0 0.00 0.00 0.00 52 1013.4
20260504012821 9 220 0.0 0.0 0.00 0.00 0.00 52 1013.3
20260504012322 9 246 0.0 0.0 0.00 0.00 0.00 51 1013.3
20260504011825 9 209 0.0 0.0 0.00 0.00 0.00 51 1013.2
20260504011325 9 217 0.0 0.0 0.00 0.00 0.00 51 1013.2
20260504010848 9 209 0.0 0.0 0.00 0.00 0.00 50 1013.2
20260504010409 9 242 0.0 0.0 0.00 0.00 0.00 50 1013.3
20260504005829 10 210 0.0 0.0 0.00 0.00 0.00 49 1013.2
20260504005313 10 205 0.0 0.0 0.00 0.00 0.00 49 1013.2
20260504004815 10 205 0.0 0.0 0.00 0.00 0.00 48 1013.2
20260504004318 10 245 0.0 0.0 0.00 0.00 0.00 48 1013.0
20260504003821 10 219 0.0 0.0 0.00 0.00 0.00 47 1013.0
20260504003347 10 217 0.0 0.0 0.00 0.00 0.00 47 1013.0
20260504002852 10 221 0.0 0.0 0.00 0.00 0.00 46 1012.9
20260504002314 11 240 0.0 0.0 0.00 0.00 0.00 46 1012.8
20260504001824 11 214 0.0 0.0 0.00 0.00 0.00 45 1012.8
20260504001328 11 224 0.0 0.0 0.00 0.00 0.00 44 1012.8
20260504000826 11 227 0.0 0.0 0.00 0.00 0.00 43 1012.6
20260504000330 11 222 0.0 0.0 0.00 0.00 0.00 42 1012.8
20260503235815 12 271 0.0 0.0 0.00 0.00 0.00 42 1012.8
20260503235339 12 225 0.0 0.0 0.00 0.00 0.00 41 1012.7
20260503234824 12 27 0.0 0.0 0.00 0.00 0.00 41 1012.7
20260503234348 12 243 0.0 0.0 0.00 0.00 0.00 41 1012.7
20260503233853 12 56 0.0 0.0 0.00 0.00 0.00 41 1012.6
20260503233317 13 268 0.0 12.9 0.00 0.00 0.00 40 1012.7
20260503232840 13 194 3.2 14.5 0.00 0.00 0.00 40 1012.6
20260503232341 13 307 0.0 1.6 0.00 0.00 0.00 39 1012.6
20260503231821 13 231 0.0 0.0 0.00 0.00 0.00 39 1012.5
20260503231326 14 156 0.0 0.0 0.00 0.00 0.00 37 1012.5
20260503230831 14 221 0.0 0.0 0.00 0.00 0.00 37 1012.5
20260503230316 15 77 0.0 0.0 0.00 0.00 0.00 36 1012.5
20260503225843 15 16 0.0 0.0 0.00 0.00 0.00 37 1012.5
20260503225326 15 6 0.0 0.0 0.00 0.00 0.00 38 1012.5
20260503224815 14 230 0.0 0.0 0.00 0.00 0.00 39 1012.5
20260503224322 14 343 0.0 0.0 0.00 0.00 0.00 39 1012.5
20260503223825 13 257 0.0 0.0 0.00 0.00 0.00 40 1012.5
20260503223352 13 318 0.0 0.0 0.00 0.00 0.00 39 1012.6
20260503222855 13 275 0.0 0.0 0.00 0.00 0.00 39 1012.6
20260503222316 13 245 0.0 0.0 0.00 0.00 0.00 38 1012.6
20260503221824 14 214 0.0 0.0 0.00 0.00 0.00 38 1012.6
20260503221329 14 239 0.0 0.0 0.00 0.00 0.00 37 1012.6
20260503220828 14 306 0.0 0.0 0.00 0.00 0.00 37 1012.7
20260503220313 15 297 0.0 0.0 0.00 0.00 0.00 36 1012.6
20260503215817 15 266 0.0 0.0 0.00 0.00 0.00 36 1012.6
20260503215322 15 256 0.0 0.0 0.00 0.00 0.00 36 1012.6
20260503214828 15 359 0.0 0.0 0.00 0.00 0.00 37 1012.8
20260503214317 14 256 0.0 0.0 0.00 0.00 0.00 37 1012.6
20260503213825 14 282 0.0 0.0 0.00 0.00 0.00 38 1012.6
20260503213328 13 314 0.0 0.0 0.00 0.00 0.00 41 1012.6
20260503212833 13 142 0.0 0.0 0.00 0.00 0.00 39 1012.5
20260503212316 13 240 0.0 0.0 0.00 0.00 0.00 39 1012.5
20260503211820 13 279 0.0 0.0 0.00 0.00 0.00 38 1012.6
20260503211322 13 65 0.0 0.0 0.00 0.00 0.00 38 1012.6
20260503210828 14 225 0.0 0.0 0.00 0.00 0.00 37 1012.5
20260503210334 14 300 0.0 0.0 0.00 0.00 0.00 36 1012.4
20260503205837 15 332 0.0 0.0 0.00 0.00 0.00 37 1012.4
20260503205313 14 302 0.0 0.0 0.00 0.00 0.00 36 1012.4
20260503204819 14 301 0.0 0.0 0.00 0.00 0.00 37 1012.8
20260503204324 14 240 0.0 0.0 0.00 0.00 0.00 37 1012.7
20260503203813 15 37 0.0 0.0 0.00 0.00 0.00 37 1012.7
20260503203318 15 49 0.0 0.0 0.00 0.00 0.00 35 1012.7
20260503202823 15 225 0.0 0.0 0.00 0.00 0.00 36 1012.5
20260503202348 15 40 0.0 16.1 0.00 0.00 0.00 38 1012.7
20260503201831 15 240 1.6 14.5 0.00 0.00 0.00 37 1013.0
20260503201338 15 339 1.6 8.0 0.00 0.00 0.00 35 1013.0
20260503200822 15 320 0.0 0.0 0.00 0.00 0.00 36 1013.0
20260503200325 15 272 0.0 0.0 0.00 0.00 0.00 37 1013.1
20260503195828 15 330 0.0 0.0 0.00 0.00 0.00 36 1013.0
20260503195353 15 28 0.0 0.0 0.00 0.00 0.00 36 1013.1
20260503194815 15 314 0.0 0.0 0.00 0.00 0.00 37 1013.1
20260503194342 14 297 0.0 0.0 0.00 0.00 0.00 37 1013.4
20260503193847 14 255 0.0 0.0 0.00 0.00 0.00 37 1013.3
20260503193328 14 307 0.0 0.0 0.00 0.00 0.00 38 1013.4
20260503192830 13 156 0.0 0.0 0.00 0.00 0.00 39 1013.5
20260503192312 13 313 0.0 0.0 0.00 0.00 0.00 39 1013.5
20260503191824 13 41 0.0 0.0 0.00 0.00 0.00 37 1013.7
20260503191327 13 303 0.0 0.0 0.00 0.00 0.00 39 1013.5
20260503190829 13 262 0.0 0.0 0.00 0.00 0.00 38 1013.6
20260503190314 14 345 0.0 0.0 0.00 0.00 0.00 37 1013.8
20260503185819 14 19 0.0 0.0 0.00 0.00 0.00 37 1013.7
20260503185323 14 360 0.0 0.0 0.00 0.00 0.00 38 1013.8
20260503184825 14 297 0.0 0.0 0.00 0.00 0.00 38 1013.9
20260503184327 14 254 0.0 0.0 0.00 0.00 0.00 38 1013.9
20260503183832 13 262 0.0 0.0 0.00 0.00 0.00 42 1013.8
20260503183316 13 117 0.0 0.0 0.00 0.00 0.00 40 1014.0
20260503182839 13 295 0.0 0.0 0.00 0.00 0.00 39 1014.1
20260503182322 13 336 0.0 0.0 0.00 0.00 0.00 40 1014.0
20260503181828 13 252 0.0 0.0 0.00 0.00 0.00 39 1014.1
20260503181316 13 345 0.0 0.0 0.00 0.00 0.00 38 1014.2
20260503180823 13 214 0.0 0.0 0.00 0.00 0.00 40 1014.1
20260503180329 12 251 0.0 0.0 0.00 0.00 0.00 41 1014.2
20260503175813 12 305 0.0 0.0 0.00 0.00 0.00 40 1014.2
20260503175322 12 249 0.0 0.0 0.00 0.00 0.00 39 1014.3
20260503174824 13 354 0.0 0.0 0.00 0.00 0.00 41 1014.4
20260503174330 13 309 0.0 0.0 0.00 0.00 0.00 41 1014.4
20260503173835 13 295 0.0 0.0 0.00 0.00 0.00 39 1014.3
20260503173318 13 260 0.0 0.0 0.00 0.00 0.00 40 1014.3
20260503172844 13 278 0.0 0.0 0.00 0.00 0.00 39 1014.3
20260503172327 13 209 0.0 16.1 0.00 0.00 0.00 40 1014.3
20260503171853 13 105 3.2 16.1 0.00 0.00 0.00 40 1014.3
20260503171317 12 291 0.0 0.0 0.00 0.00 0.00 42 1014.3
20260503170823 12 290 0.0 9.7 0.00 0.00 0.00 42 1014.4
20260503170327 12 311 1.6 12.9 0.00 0.00 0.00 42 1014.4
20260503150838 9 45 0.0 0.0 0.00 0.00 0.00 50 1015.6
20260503150324 9 34 0.0 12.9 0.00 0.00 0.00 50 1015.5
20260503131316 7 274 0.0 0.0 0.00 0.00 0.00 57 1016.0
20260503130822 7 341 0.0 0.0 0.00 0.00 0.00 57 1016.1
20260503130329 7 250 0.0 0.0 0.00 0.00 0.00 59 1016.0
20260503110349 1 284 0.0 0.0 0.00 0.00 0.00 77 1015.5
20260503090323 2 31 0.0 0.0 0.00 0.00 0.00 72 1014.6
20260503081326 2 316 0.0 0.0 0.00 0.00 0.00 71 1014.4
20260503080852 2 5 0.0 0.0 0.00 0.00 0.00 71 1014.4
20260503080318 2 49 0.0 0.0 0.00 0.00 0.00 71 1014.4
20260503072853 2 305 0.0 0.0 0.00 0.00 0.00 71 1014.2
20260503072318 2 47 0.0 0.0 0.00 0.00 0.00 70 1014.3
20260503071823 2 47 0.0 0.0 0.00 0.00 0.00 70 1014.2
20260503071326 2 47 0.0 0.0 0.00 0.00 0.00 71 1014.1
20260503070813 2 115 0.0 0.0 0.00 0.00 0.00 71 1014.2
20260503070340 2 27 0.0 0.0 0.00 0.00 0.00 70 1014.1
20260503060324 2 316 0.0 0.0 0.00 0.00 0.00 70 1014.2
20260503054816 2 2 0.0 0.0 0.00 0.03 0.00 70 1014.3
20260503054322 2 220 0.0 0.0 0.00 0.03 0.00 69 1014.3
20260503053848 2 220 0.0 0.0 0.00 0.03 0.00 68 1014.2
20260503053347 2 220 0.0 0.0 0.00 0.03 0.00 68 1014.4
20260503052829 3 220 0.0 0.0 0.00 0.03 0.00 68 1014.3
20260503052315 3 220 0.0 0.0 0.00 0.03 0.00 69 1014.3
20260503051822 3 220 0.0 0.0 0.00 0.03 0.00 69 1014.4
20260503051325 3 219 0.0 0.0 0.00 0.03 0.00 69 1014.4
20260503050849 3 219 0.0 0.0 0.00 0.03 0.00 70 1014.4
20260503050312 2 288 0.0 0.0 0.00 0.03 0.00 70 1014.5